Location: Maiden
(35.5760°N, 81.2120°W)
Time: 12:27:53
(UTC-04:00)

ASTRO E2 - Pass Details

Date: 14 June 2018
Orbit: 513 x 519 km, 31.4° (Epoch: 20 June)

Event Time Altitude Azimuth Distance (km) Brightness Sun altitude
Rises 21:49:46 0° 266° (W) 2,612 7.0 -12.1°
Reaches altitude 10° 21:52:06 10° 258° (WSW) 1,727 5.9 -12.5°
Maximum altitude 21:55:47 37° 191° (S) 811 3.4 -13.1°
Enters shadow 21:57:43 22° 139° (SE) 1,138 3.8 -13.3°
